User: anonymous   Login
Location: Unspecified
(0.0000°N, 0.0000°E)
Time: 00:53:03
(UTC+00:00)
Language:

ESSA 2 - Orbit

View from above orbital plane
View from above orbital plane
View from above satellite
View from above satellite

Ground track
Ground track

The orbit data is extracted from the following two-line orbital elements,

1  2091U 66016A   18265.46987562 -.00000048 +00000-0 -22046-4 0  9992
2  2091 101.1362 205.3203 0038269 232.4921 242.0437 12.69375229435611
Epoch (UTC): 22 September 2018 11:16:37
Eccentricity: 0.0038269
inclination: 101.1362°
perigee height: 1355 km
apogee height: 1414 km
right ascension of ascending node: 205.3203°
argument of perigee: 232.4921°
revolutions per day: 12.69375229
mean anomaly at epoch: 242.0437°
orbit number at epoch: 43561

The dashed part of the orbit path shows where the satellite is in the earth's shadow,  

DLR